Location: Eexterzandvoort
(53.0303°N, 6.7884°E)
Time: 00:57:37
(UTC+00:00)

Cosmos 1500 Rocket - Pass Details

Date: 19 May 2025
Orbit: 598 x 623 km, 82.5° (Epoch: 22 June)

Event Time Altitude Azimuth Distance (km) Brightness Sun altitude
Rises 22:45:05 0° 349° (NNW) 2,880 8.8 -16.4°
Reaches altitude 10° 22:47:18 10° 350° (N) 1,975 7.5 -16.4°
Maximum altitude 22:51:41 86° 78° (ENE) 622 3.5 -16.5°
Enters shadow 22:53:41 32° 167° (SSE) 1,059 4.2 -16.6°
